Location: Unspecified
(0.0000°N, 0.0000°E)
Time: 13:40:14
(UTC+00:00)

Hubble Space Telescope - Pass Details

Date: 04 December 2021
Orbit: 534 x 538 km, 28.5° (Epoch: 07 December)

Event Time Altitude Azimuth Distance (km) Brightness Sun altitude
Rises 18:42:10 0° 216° (SW) 2,675 5.4 -12.0°
Reaches altitude 10° 18:44:57 10° 198° (SSW) 1,783 4.0 -12.6°
Maximum altitude 18:47:54 19° 152° (SSE) 1,311 2.7 -13.3°
Enters shadow 18:50:12 13° 113° (ESE) 1,610 2.8 -13.8°
